20050427,000011,1069044,34.242518,-119.347092,14.428,33.443,1.827,4.280
20050427,000041,1069074,34.243487,-119.345550,14.367,33.486,1.820,4.235
20050427,000111,1069104,34.244413,-119.344083,14.373,33.470,1.786,4.182
20050427,000141,1069134,34.245347,-119.342597,14.380,33.448,1.753,4.084
20050427,000211,1069164,34.246268,-119.341118,14.405,33.411,1.760,4.015
20050427,000241,1069194,34.247195,-119.339643,14.455,33.357,1.706,3.609
20050427,000311,1069224,34.248128,-119.338168,14.526,33.288,1.665,3.546
20050427,000341,1069254,34.249053,-119.336685,14.593,33.230,1.632,3.598
20050427,000411,1069284,34.249983,-119.335195,14.718,33.138,1.619,3.421
20050427,000441,1069314,34.250907,-119.333718,14.868,33.037,1.625,3.301
20050427,000511,1069344,34.251827,-119.332258,14.981,32.985,1.532,3.077
20050427,000541,1069374,34.252743,-119.330785,15.059,32.976,1.519,3.057
20050427,000611,1069404,34.253623,-119.329277,15.203,32.922,1.505,2.950
20050427,000641,1069434,34.254472,-119.327765,15.220,32.984,1.525,2.906
20050427,000712,1069465,34.255333,-119.326252,15.368,32.947,1.512,2.916
20050427,000741,1069494,34.255990,-119.325170,15.340,33.053,1.625,3.241
20050427,000811,1069524,34.256487,-119.324770,15.309,33.153,1.840,4.012
20050427,000842,1069555,34.256790,-119.324697,15.262,33.254,1.961,4.400
20050427,000912,1069585,34.256978,-119.324742,15.245,33.313,2.029,4.588
20050427,000942,1069615,34.257085,-119.324810,15.243,33.342,2.090,4.773
20050427,001011,1069644,34.257132,-119.324883,15.246,33.353,2.219,5.161
20050427,001041,1069674,34.257138,-119.324922,15.260,33.346,2.334,5.526
20050427,001111,1069704,34.257093,-119.324965,15.294,33.309,2.362,5.605
20050427,001141,1069734,34.257012,-119.325035,15.338,33.250,2.320,5.452
20050427,001211,1069764,34.256930,-119.325147,15.379,33.177,2.464,5.927
20050427,001241,1069794,34.256870,-119.325277,15.416,33.110,2.300,5.407
20050427,001312,1069825,34.256838,-119.325397,15.432,33.059,2.368,5.693
20050427,001341,1069854,34.256798,-119.325495,15.444,33.027,2.368,5.752
20050427,001412,1069885,34.256723,-119.325602,15.450,32.998,2.457,6.018
20050427,001441,1069914,34.256618,-119.325695,15.455,32.990,2.573,6.387
20050427,001511,1069944,34.256483,-119.325798,15.457,32.975,2.539,6.247
20050427,001541,1069974,34.256323,-119.325925,15.457,32.972,2.696,6.809
20050427,001611,1070004,34.256233,-119.325985,15.458,32.967,2.669,6.814
20050427,001642,1070035,34.256142,-119.326040,15.455,32.975,2.607,6.640
20050427,001712,1070066,34.256048,-119.326087,15.453,32.969,2.580,6.440
20050427,001741,1070094,34.255963,-119.326127,15.451,32.971,2.607,6.511
20050427,001811,1070124,34.255870,-119.326158,15.439,32.983,2.676,6.751
20050427,001842,1070155,34.255768,-119.326187,15.428,32.992,2.614,6.569
20050427,001912,1070185,34.255658,-119.326212,15.426,32.994,2.696,6.953
20050427,001941,1070214,34.255547,-119.326225,15.412,33.006,2.655,6.878
20050427,002011,1070244,34.255425,-119.326260,15.416,33.000,2.642,6.852
20050427,002042,1070275,34.255313,-119.326318,15.401,33.010,2.648,6.925
20050427,002111,1070304,34.255222,-119.326348,15.397,33.008,2.635,6.833
20050427,002141,1070334,34.255130,-119.326357,15.396,33.006,2.614,6.717
20050427,002212,1070365,34.255037,-119.326350,15.390,33.008,2.621,6.719
20050427,002242,1070395,34.254940,-119.326323,15.381,33.013,2.621,6.616
20050427,002312,1070425,34.254828,-119.326275,15.382,33.010,2.662,6.690
20050427,002342,1070455,34.254713,-119.326215,15.370,33.018,2.600,6.443
20050427,002412,1070485,34.254595,-119.326138,15.356,33.026,2.539,6.205
20050427,002442,1070515,34.254462,-119.326060,15.347,33.031,2.587,6.466
20050427,002512,1070545,34.254320,-119.325978,15.345,33.029,2.532,6.360
20050427,002541,1070574,34.254177,-119.325883,15.331,33.035,2.703,7.017
20050427,002612,1070605,34.254030,-119.325788,15.320,33.040,2.580,6.561
20050427,002642,1070635,34.253870,-119.325687,15.313,33.040,2.655,6.865
20050427,002712,1070665,34.253707,-119.325580,15.307,33.040,2.689,7.050
20050427,002742,1070695,34.253517,-119.325503,15.302,33.040,2.600,6.747
20050427,002812,1070725,34.253333,-119.325463,15.299,33.038,2.628,6.872
20050427,002842,1070755,34.253145,-119.325452,15.297,33.036,2.669,7.035
20050427,002912,1070785,34.252965,-119.325480,15.293,33.035,2.648,7.055
20050427,002942,1070815,34.252825,-119.325542,15.290,33.034,2.648,7.123
20050427,003012,1070845,34.252725,-119.325605,15.287,33.033,2.703,7.420
20050427,003042,1070875,34.252665,-119.325687,15.289,33.030,2.573,6.977
20050427,003112,1070905,34.252643,-119.325818,15.284,33.033,2.511,6.697
20050427,003142,1070935,34.252605,-119.326005,15.261,33.048,2.429,6.380
20050427,003212,1070965,34.252532,-119.326227,15.241,33.063,2.423,6.460
20050427,003242,1070995,34.252428,-119.326425,15.213,33.083,2.450,6.575
20050427,003312,1071025,34.252312,-119.326577,15.184,33.101,2.464,6.733
20050427,003342,1071055,34.252188,-119.326748,15.150,33.119,2.450,6.751
20050427,003412,1071085,34.252087,-119.326975,15.156,33.103,3.164,9.927
20050427,003442,1071115,34.252007,-119.327195,15.112,33.126,2.840,8.445
20050427,003512,1071145,34.251935,-119.327367,15.025,33.184,2.964,9.069
20050427,003542,1071175,34.251878,-119.327567,14.978,33.208,3.061,9.500
20050427,003612,1071205,34.251862,-119.327807,14.927,33.226,2.854,8.593
20050427,003642,1071235,34.251895,-119.328062,14.873,33.241,2.895,8.776
20050427,003712,1071265,34.251962,-119.328375,14.870,33.214,2.861,8.512
20050427,003742,1071295,34.252030,-119.328762,14.855,33.202,2.751,7.800
20050427,003812,1071325,34.252125,-119.329187,14.839,33.181,2.861,8.221
20050427,003842,1071355,34.252225,-119.329637,14.822,33.168,2.916,8.423
20050427,003912,1071385,34.252328,-119.330108,14.810,33.161,3.054,9.082
20050427,003942,1071416,34.252418,-119.330550,14.803,33.148,3.275,10.064
20050427,004012,1071445,34.252465,-119.330883,14.796,33.141,3.413,10.360
20050427,004042,1071475,34.252477,-119.331235,14.785,33.136,3.413,10.030
20050427,004112,1071505,34.252532,-119.331668,14.765,33.142,3.524,10.382
20050427,004142,1071535,34.252683,-119.332120,14.762,33.132,3.573,10.748
20050427,004212,1071565,34.252842,-119.332600,14.769,33.114,3.538,10.487
20050427,004242,1071595,34.252965,-119.333130,14.763,33.105,3.399,9.869
20050427,004312,1071625,34.253153,-119.333872,14.766,33.093,3.157,9.019
20050427,004342,1071655,34.253475,-119.334965,14.772,33.079,3.068,8.579
20050427,004412,1071685,34.253892,-119.336367,14.782,33.063,3.047,8.296
20050427,004442,1071715,34.254348,-119.337895,14.799,33.045,2.847,7.289
20050427,004512,1071745,34.254815,-119.339467,14.823,33.021,2.724,6.865
20050427,004542,1071775,34.255287,-119.341055,14.855,32.995,2.826,7.315
20050427,004612,1071805,34.255760,-119.342650,14.878,32.980,3.012,8.089
20050427,004642,1071835,34.256227,-119.344243,14.900,32.968,2.978,8.041
20050427,004713,1071866,34.256693,-119.345838,14.963,32.927,2.813,7.444
20050427,004742,1071895,34.257140,-119.347423,15.014,32.900,2.580,6.571
20050427,004812,1071925,34.257598,-119.349003,15.040,32.895,2.436,6.093
20050427,004842,1071955,34.258032,-119.350558,15.057,32.904,2.178,5.268
20050427,004912,1071985,34.258505,-119.352118,15.026,32.956,2.036,4.889
20050427,004942,1072015,34.258938,-119.353722,15.027,32.978,2.198,5.554
20050427,005012,1072045,34.259407,-119.355300,15.099,32.936,2.287,6.001
20050427,005042,1072075,34.259882,-119.356887,15.165,32.896,2.300,6.032
20050427,005113,1072106,34.260387,-119.358503,15.243,32.849,2.239,5.772
20050427,005142,1072135,34.260873,-119.360095,15.377,32.766,2.117,5.296
20050427,005212,1072165,34.261360,-119.361690,15.416,32.774,2.042,5.022
20050427,005242,1072195,34.261822,-119.363255,15.441,32.799,2.009,4.890
20050427,005312,1072225,34.262402,-119.364883,15.474,32.818,1.988,4.844
20050427,005342,1072255,34.262890,-119.366478,15.482,32.853,1.988,4.820
20050427,005412,1072285,34.263378,-119.368077,15.511,32.868,1.914,4.573
20050427,005442,1072315,34.263865,-119.369675,15.537,32.881,1.847,4.399
20050427,005512,1072345,34.264357,-119.371270,15.551,32.895,1.820,4.343
20050427,005543,1072376,34.264845,-119.372872,15.552,32.919,1.860,4.453
20050427,005612,1072405,34.265327,-119.374475,15.532,32.960,1.854,4.450
20050427,005642,1072435,34.265817,-119.376073,15.512,32.996,1.928,4.703
20050427,005713,1072466,34.266303,-119.377677,15.458,33.053,2.036,5.090
20050427,005742,1072495,34.266795,-119.379293,15.427,33.085,2.063,5.197
20050427,005812,1072525,34.267290,-119.380905,15.389,33.114,2.131,5.423
20050427,005843,1072556,34.267787,-119.382513,15.391,33.106,2.056,5.095
20050427,005913,1072586,34.268282,-119.384120,15.331,33.146,2.070,5.037
20050427,005942,1072615,34.268775,-119.385720,15.267,33.184,2.131,5.233
20050427,010012,1072645,34.269253,-119.387265,15.214,33.210,2.144,5.291
20050427,010043,1072676,34.269747,-119.388865,15.144,33.251,2.151,5.312
20050427,010113,1072706,34.270240,-119.390467,15.075,33.292,2.192,5.370
20050427,010142,1072735,34.270733,-119.392060,15.043,33.303,2.178,5.258
20050427,010213,1072766,34.271233,-119.393655,14.953,33.376,2.137,5.068
20050427,010242,1072795,34.271732,-119.395248,14.970,33.331,2.219,5.283
20050427,010312,1072825,34.272232,-119.396837,14.991,33.275,2.273,5.417
20050427,010342,1072855,34.272730,-119.398432,15.018,33.221,2.395,5.909
20050427,010412,1072885,34.273228,-119.400023,15.047,33.172,2.559,6.514
20050427,010442,1072915,34.273725,-119.401620,15.062,33.149,2.573,6.384
20050427,010512,1072945,34.274222,-119.403213,15.066,33.142,2.505,6.013
20050427,010542,1072975,34.274717,-119.404813,15.060,33.143,2.484,5.940
20050427,010612,1073005,34.275212,-119.406410,15.052,33.172,2.655,6.519
20050427,010642,1073035,34.275710,-119.408013,15.030,33.203,2.518,6.030
20050427,010712,1073065,34.276208,-119.409610,15.004,33.231,2.464,5.814
20050427,010742,1073095,34.276705,-119.411208,14.973,33.268,2.566,6.193
20050427,010813,1073126,34.277208,-119.412810,14.943,33.281,2.580,6.204
20050427,010842,1073155,34.277700,-119.414417,14.918,33.300,2.552,6.071
20050427,010912,1073185,34.278203,-119.416025,14.891,33.312,2.525,6.021
20050427,010942,1073215,34.278702,-119.417633,14.889,33.305,2.539,6.043
20050427,011013,1073246,34.279207,-119.419238,14.897,33.281,2.545,6.035
20050427,011042,1073275,34.279707,-119.420848,14.927,33.252,2.559,6.216
20050427,011112,1073305,34.280210,-119.422455,14.949,33.243,2.436,5.885
20050427,011142,1073335,34.280717,-119.424060,14.974,33.222,2.539,6.366
20050427,011212,1073365,34.281222,-119.425670,14.984,33.229,2.443,6.125
20050427,011242,1073395,34.281725,-119.427266,14.989,33.240,2.416,6.033
20050427,011312,1073425,34.282232,-119.428878,14.981,33.265,2.389,5.951
20050427,011342,1073455,34.282738,-119.430498,14.980,33.275,2.320,5.700
20050427,011412,1073485,34.283248,-119.432120,14.995,33.273,2.266,5.526
20050427,011442,1073515,34.283747,-119.433745,15.025,33.261,2.280,5.575
20050427,011512,1073545,34.284252,-119.435368,15.064,33.242,2.260,5.542
20050427,011542,1073575,34.284747,-119.436996,15.083,33.242,2.266,5.616
20050427,011612,1073605,34.285240,-119.438620,15.117,33.230,2.300,5.683
20050427,011642,1073635,34.285733,-119.440251,15.141,33.230,2.293,5.700
20050427,011712,1073665,34.286222,-119.441885,15.162,33.234,2.260,5.605
20050427,011743,1073696,34.286717,-119.443520,15.174,33.247,2.164,5.289
20050427,011812,1073725,34.287193,-119.445103,15.193,33.253,2.151,5.256
20050427,011842,1073755,34.287702,-119.446793,15.207,33.265,2.049,4.887
20050427,011913,1073786,34.288193,-119.448448,15.218,33.273,2.009,4.730
20050427,011943,1073816,34.288688,-119.450090,15.225,33.288,2.036,4.794
20050427,012012,1073845,34.289180,-119.451733,15.224,33.305,2.070,4.885
20050427,012042,1073875,34.289672,-119.453383,15.219,33.325,2.103,4.984
20050427,012113,1073906,34.290168,-119.455030,15.212,33.344,2.056,4.817
20050427,012142,1073935,34.290653,-119.456678,15.201,33.364,2.029,4.712
20050427,012212,1073965,34.291135,-119.458326,15.193,33.379,2.090,4.892
20050427,012243,1073996,34.291625,-119.459975,15.184,33.391,2.009,4.622
20050427,012312,1074025,34.292113,-119.461623,15.162,33.413,2.124,4.982
20050427,012342,1074055,34.292602,-119.463263,15.141,33.428,2.090,4.841
20050427,012412,1074085,34.293095,-119.464896,15.103,33.460,2.124,4.933
20050427,012442,1074116,34.293585,-119.466528,15.072,33.478,2.212,5.191
20050427,012512,1074145,34.294078,-119.468160,15.059,33.483,2.280,5.405
20050427,012542,1074175,34.294568,-119.469790,15.020,33.502,2.348,5.589
20050427,012612,1074205,34.295062,-119.471413,14.978,33.521,2.457,5.913
20050427,012643,1074236,34.295557,-119.473043,14.975,33.509,2.498,6.018
20050427,012712,1074265,34.296052,-119.474675,14.970,33.492,2.525,6.051
20050427,012742,1074295,34.296538,-119.476301,14.974,33.477,2.559,6.109
20050427,012812,1074325,34.297028,-119.477935,14.976,33.463,2.566,6.064
20050427,012842,1074355,34.297522,-119.479565,14.980,33.447,2.525,5.812
20050427,012912,1074385,34.298013,-119.481191,14.981,33.435,2.573,5.899
20050427,012942,1074415,34.298502,-119.482818,14.974,33.434,2.532,5.652
20050427,013012,1074445,34.298995,-119.484455,14.966,33.435,2.511,5.486
20050427,013042,1074475,34.299483,-119.486080,14.958,33.438,2.545,5.525
20050427,013112,1074505,34.299978,-119.487705,14.952,33.439,2.491,5.274
20050427,013142,1074535,34.300472,-119.489336,14.947,33.440,2.484,5.198
20050427,013212,1074565,34.300958,-119.490971,14.941,33.439,2.566,5.413
20050427,013242,1074595,34.301448,-119.492611,14.934,33.442,2.545,5.317
20050427,013312,1074625,34.301937,-119.494255,14.927,33.442,2.600,5.464
20050427,013342,1074655,34.302423,-119.495890,14.907,33.452,2.566,5.344
20050427,013412,1074685,34.302908,-119.497518,14.898,33.454,2.648,5.596
20050427,013442,1074715,34.303397,-119.499148,14.873,33.469,2.593,5.430
20050427,013512,1074745,34.303887,-119.500771,14.864,33.470,2.614,5.465
20050427,013542,1074775,34.304372,-119.502386,14.815,33.503,2.600,5.393
20050427,013612,1074805,34.304857,-119.504001,14.794,33.511,2.648,5.525
20050427,013643,1074836,34.305343,-119.505613,14.747,33.538,2.724,5.741
20050427,013712,1074865,34.305827,-119.507223,14.704,33.557,2.744,5.797
20050427,013742,1074895,34.306312,-119.508828,14.682,33.557,2.792,5.945
20050427,013812,1074925,34.306803,-119.510431,14.693,33.527,2.751,5.809
20050427,013843,1074956,34.307298,-119.512021,14.705,33.498,2.813,5.989
20050427,013912,1074985,34.307783,-119.513605,14.715,33.473,2.758,5.804
20050427,013942,1075015,34.308270,-119.515186,14.723,33.452,2.806,5.944
20050427,014013,1075046,34.308757,-119.516768,14.745,33.424,2.813,5.960
20050427,014043,1075076,34.309247,-119.518346,14.772,33.395,2.875,6.152
20050427,014113,1075106,34.309735,-119.519928,14.786,33.379,2.895,6.216
20050427,014142,1075135,34.310223,-119.521513,14.792,33.373,3.019,6.613
20050427,014212,1075165,34.310707,-119.523100,14.811,33.360,2.923,6.301
20050427,014242,1075195,34.311180,-119.524698,14.823,33.357,2.902,6.237
20050427,014312,1075225,34.311662,-119.526296,14.865,33.328,2.978,6.488
20050427,014343,1075256,34.312137,-119.527881,14.894,33.314,2.936,6.363
20050427,014413,1075286,34.312617,-119.529460,14.918,33.307,3.081,6.831
20050427,014442,1075315,34.313097,-119.531033,14.916,33.326,3.054,6.723
20050427,014512,1075345,34.313575,-119.532613,14.886,33.367,3.026,6.626
20050427,014542,1075375,34.314050,-119.534188,14.815,33.440,3.054,6.711
20050427,014612,1075405,34.314530,-119.535766,14.809,33.453,3.005,6.553
20050427,014642,1075435,34.315013,-119.537353,14.841,33.429,3.081,6.801
20050427,014712,1075466,34.315488,-119.538940,14.895,33.379,2.998,6.531
20050427,014742,1075495,34.315967,-119.540531,14.971,33.312,3.040,6.661
20050427,014813,1075526,34.316443,-119.542130,14.990,33.297,3.116,6.907
20050427,014842,1075555,34.316968,-119.543700,15.025,33.281,3.081,6.793
20050427,014912,1075585,34.317493,-119.545276,15.038,33.291,3.054,6.702
20050427,014943,1075616,34.318013,-119.546860,15.030,33.321,3.081,6.795
20050427,015013,1075646,34.318535,-119.548441,14.992,33.371,3.088,6.821
20050427,015042,1075675,34.319052,-119.550030,14.945,33.427,3.185,7.151
20050427,015113,1075706,34.319572,-119.551616,14.891,33.479,3.192,7.187
20050427,015143,1075736,34.320107,-119.553260,14.823,33.536,3.171,7.133
20050427,015212,1075765,34.320610,-119.554801,14.752,33.587,3.185,7.200
20050427,015242,1075795,34.321130,-119.556400,14.709,33.606,3.185,7.232
20050427,015312,1075825,34.321645,-119.557996,14.654,33.630,3.206,7.341
20050427,015342,1075855,34.322157,-119.559596,14.584,33.659,3.171,7.248
20050427,015412,1075885,34.322673,-119.561195,14.529,33.676,3.254,7.539
20050427,015442,1075915,34.323188,-119.562788,14.472,33.689,3.219,7.430
20050427,015512,1075945,34.323702,-119.564381,14.418,33.694,3.254,7.552
20050427,015543,1075976,34.324212,-119.565970,14.343,33.717,3.303,7.717
20050427,015612,1076005,34.324725,-119.567555,14.304,33.703,3.323,7.799
20050427,015642,1076035,34.325233,-119.569141,14.253,33.705,3.337,7.858
20050427,015712,1076065,34.325743,-119.570731,14.194,33.706,3.254,7.579
20050427,015743,1076096,34.326253,-119.572318,14.180,33.674,3.247,7.546
20050427,015813,1076126,34.326782,-119.573955,14.169,33.640,3.192,7.316
20050427,015842,1076155,34.327277,-119.575480,14.133,33.632,3.116,7.022
20050427,015912,1076185,34.327787,-119.577056,14.108,33.618,3.102,6.947
20050427,015943,1076217,34.328298,-119.578636,14.093,33.601,3.164,7.137
20050427,020013,1076246,34.328825,-119.580261,14.086,33.578,3.012,6.615
20050427,020043,1076276,34.329335,-119.581831,14.036,33.594,2.909,6.267
20050427,020113,1076306,34.329825,-119.583343,14.028,33.573,2.799,5.916
20050427,020143,1076336,34.330327,-119.584910,14.002,33.572,2.751,5.779
20050427,020213,1076366,34.330828,-119.586480,13.983,33.564,2.826,6.033
20050427,020243,1076396,34.331345,-119.588108,13.959,33.562,2.840,6.097
20050427,020313,1076426,34.331850,-119.589688,13.930,33.565,2.861,6.168
20050427,020343,1076456,34.332347,-119.591266,13.925,33.551,2.785,5.919
20050427,020413,1076486,34.332850,-119.592850,13.921,33.534,2.751,5.809
20050427,020444,1076517,34.333353,-119.594428,13.879,33.548,2.847,6.106
20050427,020514,1076547,34.333857,-119.596013,13.860,33.542,2.875,6.183
20050427,020543,1076576,34.334362,-119.597596,13.845,33.537,2.881,6.182
20050427,020613,1076606,34.334868,-119.599178,13.847,33.517,2.957,6.404
20050427,020643,1076636,34.335357,-119.600710,13.819,33.525,3.054,6.702
20050427,020713,1076666,34.335867,-119.602290,13.786,33.536,3.164,7.059
20050427,020743,1076696,34.336385,-119.603920,13.737,33.561,3.157,7.026
20050427,020813,1076726,34.336890,-119.605493,13.723,33.553,3.144,6.960
20050427,020843,1076756,34.337393,-119.607068,13.706,33.549,3.254,7.301
20050427,020913,1076786,34.337895,-119.608641,13.693,33.539,3.309,7.471
20050427,020944,1076817,34.338402,-119.610216,13.664,33.540,3.372,7.673
20050427,021013,1076846,34.338908,-119.611791,13.646,33.536,3.420,7.825
20050427,021043,1076876,34.339417,-119.613363,13.626,33.533,3.455,7.921
20050427,021114,1076907,34.339922,-119.614931,13.614,33.526,3.420,7.787
20050427,021143,1076936,34.340427,-119.616498,13.601,33.524,3.531,8.161
20050427,021213,1076966,34.340937,-119.618065,13.578,33.526,3.399,7.690
20050427,021243,1076996,34.341443,-119.619638,13.558,33.528,3.427,7.766
20050427,021313,1077026,34.341955,-119.621208,13.557,33.512,3.392,7.628
20050427,021343,1077056,34.342470,-119.622766,13.547,33.503,3.441,7.776
20050427,021413,1077086,34.342982,-119.624321,13.529,33.501,3.545,8.121
20050427,021443,1077116,34.343492,-119.625888,13.516,33.498,3.608,8.327
20050427,021513,1077146,34.344007,-119.627456,13.478,33.516,3.747,8.813
20050427,021543,1077176,34.344513,-119.629011,13.454,33.523,3.837,9.131
20050427,021613,1077206,34.345028,-119.630575,13.405,33.548,3.858,9.200
20050427,021644,1077237,34.345538,-119.632133,13.381,33.551,3.928,9.450
20050427,021714,1077267,34.346057,-119.633691,13.340,33.566,3.705,8.634
20050427,021743,1077296,34.346575,-119.635255,13.294,33.583,3.698,8.603
20050427,021813,1077326,34.347100,-119.636811,13.272,33.578,3.587,8.206
20050427,021844,1077357,34.347625,-119.638371,13.276,33.550,3.559,8.104
20050427,021913,1077386,34.348145,-119.639918,13.282,33.518,3.406,7.579
20050427,021943,1077416,34.348668,-119.641466,13.288,33.491,3.323,7.297
20050427,022013,1077446,34.349185,-119.643011,13.284,33.476,3.275,7.133
20050427,022044,1077478,34.349710,-119.644551,13.278,33.466,3.185,6.839
20050427,022113,1077506,34.350225,-119.646088,13.274,33.459,3.150,6.725
20050427,022143,1077536,34.350750,-119.647630,13.279,33.445,3.061,6.438
20050427,022213,1077567,34.351268,-119.649166,13.300,33.419,3.068,6.456
20050427,022243,1077596,34.351795,-119.650705,13.350,33.370,2.978,6.176
20050427,022314,1077627,34.352317,-119.652240,13.426,33.301,2.881,5.880
20050427,022343,1077656,34.352845,-119.653776,13.467,33.271,2.730,5.429
20050427,022413,1077686,34.353367,-119.655311,13.558,33.208,2.820,5.689
20050427,022443,1077716,34.353873,-119.656798,13.599,33.199,2.806,5.646
20050427,022513,1077746,34.354415,-119.658386,13.666,33.175,2.792,5.603
20050427,022543,1077776,34.354933,-119.659931,13.682,33.200,2.826,5.702
20050427,022613,1077806,34.355460,-119.661478,13.741,33.186,2.710,5.357
20050427,022643,1077836,34.355985,-119.663020,13.770,33.194,2.683,5.275
20050427,022713,1077866,34.356513,-119.664566,13.772,33.225,2.545,4.885
20050427,022744,1077897,34.357032,-119.666115,13.818,33.218,2.409,4.507
20050427,022813,1077926,34.357538,-119.667615,13.843,33.229,2.362,4.377
20050427,022843,1077956,34.358078,-119.669228,13.849,33.254,2.409,4.503
20050427,022913,1077986,34.358600,-119.670786,13.862,33.269,2.382,4.427
20050427,022943,1078016,34.359127,-119.672353,13.872,33.286,2.293,4.191
20050427,023014,1078047,34.359650,-119.673918,13.892,33.288,2.157,3.839
20050427,023043,1078076,34.360183,-119.675486,13.926,33.279,2.151,3.821
20050427,023113,1078106,34.360740,-119.677055,13.945,33.278,2.151,3.819
20050427,023144,1078137,34.361295,-119.678620,13.959,33.283,2.164,3.851
20050427,023213,1078166,34.361850,-119.680190,13.967,33.294,2.103,3.695
20050427,023243,1078196,34.362410,-119.681763,13.981,33.298,2.157,3.830
20050427,023313,1078226,34.362970,-119.683336,14.006,33.293,2.157,3.829
20050427,023343,1078256,34.363525,-119.684916,14.021,33.297,2.192,3.914
20050427,023413,1078286,34.364088,-119.686505,14.055,33.283,2.219,3.982
20050427,023443,1078316,34.364650,-119.688091,14.095,33.264,2.205,3.946
20050427,023513,1078346,34.365217,-119.689676,14.107,33.273,2.266,4.101
20050427,023543,1078376,34.365760,-119.691210,14.124,33.279,2.225,3.995
20050427,023613,1078406,34.366347,-119.692853,14.130,33.294,2.260,4.082
20050427,023643,1078436,34.366922,-119.694448,14.132,33.313,2.205,3.942
20050427,023713,1078466,34.367492,-119.696045,14.139,33.324,2.260,4.080
20050427,023744,1078497,34.368060,-119.697640,14.147,33.330,2.144,3.785
20050427,023813,1078526,34.368502,-119.699281,14.158,33.332,2.192,3.904
20050427,023844,1078557,34.368952,-119.700935,14.171,33.331,2.253,4.059
20050427,023914,1078587,34.369400,-119.702588,14.180,33.333,2.260,4.076
20050427,023944,1078617,34.369850,-119.704240,14.184,33.340,2.266,4.092
20050427,024013,1078646,34.370295,-119.705888,14.176,33.356,2.205,3.935
20050427,024043,1078676,34.370747,-119.707543,14.166,33.373,2.198,3.917
20050427,024114,1078707,34.371197,-119.709198,14.180,33.368,2.198,3.916
20050427,024144,1078737,34.371645,-119.710841,14.200,33.356,2.205,3.933
20050427,024213,1078766,34.372095,-119.712488,14.236,33.330,2.212,3.949
20050427,024244,1078797,34.372545,-119.714136,14.274,33.304,2.192,3.897
20050427,024314,1078828,34.372995,-119.715788,14.307,33.286,2.171,3.845
20050427,024343,1078856,34.373447,-119.717440,14.336,33.277,2.171,3.844